Hourly Weather Bolshoe Aleshino

Today, 16 June, Wednesday

Time Temperature Precipitation Wind Pressure Humidity
00:00 +18°C° 0.1 mm 2 mps 742 mmHg 88%
01:00 +17°C° 0.1 mm 2 mps 742 mmHg 89%
02:00 +17°C° 0.1 mm 2 mps 742 mmHg 91%
03:00 +17°C° 0.1 mm 2 mps 742 mmHg 92%
04:00 +17°C° 0.1 mm 3 mps 743 mmHg 93%
05:00 +17°C° 0.1 mm 3 mps 743 mmHg 93%
06:00 +18°C° 0.1 mm 3 mps 743 mmHg 94%
07:00 +19°C° 0 mm 3 mps 743 mmHg 89%
08:00 +20°C° 0 mm 4 mps 743 mmHg 84%
09:00 +22°C° 0 mm 4 mps 743 mmHg 79%
10:00 +22°C° 0.2 mm 5 mps 744 mmHg 76%
11:00 +23°C° 0.2 mm 5 mps 744 mmHg 73%
12:00 +23°C° 0.2 mm 5 mps 744 mmHg 71%
13:00 +25°C° 0.1 mm 5 mps 744 mmHg 70%
14:00 +25°C° 0.1 mm 5 mps 745 mmHg 69%
15:00 +25°C° 0.1 mm 5 mps 745 mmHg 68%
16:00 +23°C° 0.1 mm 5 mps 745 mmHg 70%
17:00 +23°C° 0.1 mm 5 mps 745 mmHg 73%
18:00 +22°C° 0.1 mm 4 mps 746 mmHg 76%
19:00 +20°C° 0 mm 4 mps 746 mmHg 79%
20:00 +19°C° 0 mm 3 mps 747 mmHg 82%
21:00 +17°C° 0 mm 3 mps 747 mmHg 85%
22:00 +16°C° 0 mm 3 mps 748 mmHg 84%
23:00 +14°C° 0 mm 3 mps 748 mmHg 82%

Tomorrow, 17 June, Thursday

Time Temperature Precipitation Wind Pressure Humidity
00:00 +13°C° 0 mm 3 mps 749 mmHg 80%
01:00 +13°C° 0 mm 3 mps 749 mmHg 79%
02:00 +12°C° 0 mm 3 mps 750 mmHg 79%
03:00 +12°C° 0 mm 3 mps 750 mmHg 78%
04:00 +13°C° 0 mm 2 mps 750 mmHg 79%
05:00 +13°C° 0 mm 2 mps 751 mmHg 80%
06:00 +14°C° 0 mm 2 mps 751 mmHg 82%
07:00 +14°C° 0 mm 3 mps 751 mmHg 77%
08:00 +17°C° 0 mm 3 mps 752 mmHg 72%
09:00 +19°C° 0 mm 3 mps 752 mmHg 67%
10:00 +20°C° 0 mm 3 mps 752 mmHg 63%
11:00 +21°C° 0 mm 3 mps 753 mmHg 60%
12:00 +22°C° 0 mm 3 mps 753 mmHg 56%
13:00 +22°C° 0 mm 3 mps 753 mmHg 54%
14:00 +22°C° 0 mm 3 mps 753 mmHg 53%
15:00 +24°C° 0 mm 3 mps 753 mmHg 51%
16:00 +22°C° 0 mm 3 mps 753 mmHg 57%
17:00 +22°C° 0 mm 3 mps 753 mmHg 62%
18:00 +22°C° 0 mm 3 mps 753 mmHg 67%
19:00 +20°C° 0 mm 3 mps 753 mmHg 70%
20:00 +18°C° 0 mm 2 mps 754 mmHg 73%
21:00 +16°C° 0 mm 2 mps 754 mmHg 76%
22:00 +16°C° 0 mm 2 mps 754 mmHg 75%
23:00 +15°C° 0 mm 1 mps 754 mmHg 74%

Day after tomorrow, 18 June, Friday

Time Temperature Precipitation Wind Pressure Humidity
00:00 +14°C° 0 mm 1 mps 754 mmHg 73%
01:00 +14°C° 0 mm 1 mps 755 mmHg 73%
02:00 +14°C° 0 mm 1 mps 755 mmHg 73%
03:00 +13°C° 0 mm 1 mps 755 mmHg 74%
04:00 +14°C° 0 mm 1 mps 755 mmHg 75%
05:00 +15°C° 0 mm 1 mps 756 mmHg 75%
06:00 +16°C° 0 mm 1 mps 756 mmHg 76%
07:00 +18°C° 0 mm 1 mps 756 mmHg 73%
08:00 +20°C° 0 mm 1 mps 756 mmHg 69%
09:00 +21°C° 0 mm 1 mps 756 mmHg 66%
10:00 +22°C° 0 mm 1 mps 756 mmHg 63%
11:00 +23°C° 0 mm 1 mps 756 mmHg 60%
12:00 +22°C° 0 mm 0 mps 756 mmHg 57%
13:00 +23°C° 0 mm 0 mps 756 mmHg 56%
14:00 +23°C° 0 mm 0 mps 756 mmHg 56%
15:00 +23°C° 0 mm 0 mps 756 mmHg 55%
16:00 +23°C° 0 mm 0 mps 756 mmHg 58%
17:00 +25°C° 0 mm 1 mps 756 mmHg 61%
18:00 +25°C° 0 mm 1 mps 756 mmHg 64%
19:00 +23°C° 0 mm 1 mps 756 mmHg 69%
20:00 +20°C° 0 mm 2 mps 756 mmHg 74%
21:00 +19°C° 0 mm 2 mps 756 mmHg 80%
22:00 +18°C° 0 mm 2 mps 756 mmHg 81%
23:00 +17°C° 0 mm 2 mps 756 mmHg 83%

19 June, Saturday

Time Temperature Precipitation Wind Pressure Humidity
00:00 +17°C° 0 mm 2 mps 756 mmHg 85%
01:00 +16°C° 0 mm 2 mps 756 mmHg 86%
02:00 +16°C° 0 mm 2 mps 756 mmHg 87%
03:00 +15°C° 0 mm 2 mps 757 mmHg 88%
04:00 +16°C° 0 mm 2 mps 757 mmHg 87%
05:00 +17°C° 0 mm 2 mps 757 mmHg 86%
06:00 +17°C° 0 mm 2 mps 757 mmHg 86%
07:00 +19°C° 0 mm 2 mps 757 mmHg 81%
08:00 +20°C° 0 mm 2 mps 757 mmHg 76%
09:00 +23°C° 0 mm 2 mps 757 mmHg 71%
10:00 +24°C° 0 mm 2 mps 757 mmHg 68%
11:00 +24°C° 0 mm 2 mps 757 mmHg 64%
12:00 +25°C° 0 mm 2 mps 757 mmHg 61%
13:00 +26°C° 0 mm 2 mps 757 mmHg 61%
14:00 +26°C° 0 mm 2 mps 756 mmHg 60%
15:00 +26°C° 0 mm 2 mps 756 mmHg 60%
16:00 +26°C° 0 mm 2 mps 756 mmHg 64%
17:00 +26°C° 0 mm 2 mps 756 mmHg 67%
18:00 +26°C° 0 mm 2 mps 755 mmHg 71%
19:00 +24°C° 0 mm 2 mps 755 mmHg 75%
20:00 +21°C° 0 mm 2 mps 755 mmHg 79%
21:00 +19°C° 0 mm 2 mps 755 mmHg 84%
22:00 +19°C° 0 mm 2 mps 755 mmHg 85%
23:00 +18°C° 0 mm 2 mps 755 mmHg 86%

20 June, Sunday

Time Temperature Precipitation Wind Pressure Humidity
00:00 +17°C° 0 mm 2 mps 756 mmHg 87%
01:00 +17°C° 0 mm 2 mps 756 mmHg 87%
02:00 +16°C° 0 mm 2 mps 755 mmHg 88%
03:00 +16°C° 0 mm 2 mps 755 mmHg 89%
04:00 +17°C° 0 mm 2 mps 756 mmHg 88%
05:00 +18°C° 0 mm 1 mps 756 mmHg 87%
06:00 +19°C° 0 mm 1 mps 756 mmHg 87%
07:00 +21°C° 0 mm 1 mps 756 mmHg 82%
08:00 +22°C° 0 mm 1 mps 756 mmHg 78%
09:00 +24°C° 0 mm 1 mps 756 mmHg 73%
10:00 +24°C° 0 mm 1 mps 755 mmHg 70%
11:00 +25°C° 0 mm 1 mps 755 mmHg 66%
12:00 +26°C° 0 mm 1 mps 755 mmHg 63%
13:00 +27°C° 0 mm 1 mps 755 mmHg 62%
14:00 +27°C° 0 mm 1 mps 754 mmHg 61%
15:00 +27°C° 0 mm 1 mps 754 mmHg 60%
16:00 +27°C° 0 mm 1 mps 754 mmHg 62%
17:00 +27°C° 0 mm 1 mps 754 mmHg 65%
18:00 +27°C° 0 mm 1 mps 753 mmHg 67%
19:00 +25°C° 0 mm 1 mps 753 mmHg 72%
20:00 +24°C° 0 mm 1 mps 753 mmHg 76%
21:00 +22°C° 0 mm 1 mps 753 mmHg 81%
22:00 +21°C° 0 mm 1 mps 753 mmHg 83%
23:00 +21°C° 0 mm 1 mps 753 mmHg 85%

21 June, Monday

Time Temperature Precipitation Wind Pressure Humidity
00:00 +20°C° 0 mm 1 mps 753 mmHg 87%
01:00 +20°C° 0 mm 1 mps 753 mmHg 87%
02:00 +19°C° 0 mm 1 mps 753 mmHg 88%
03:00 +19°C° 0 mm 1 mps 753 mmHg 88%
04:00 +20°C° 0 mm 1 mps 753 mmHg 87%
05:00 +18°C° 0 mm 0 mps 753 mmHg 86%
06:00 +19°C° 0 mm 0 mps 753 mmHg 84%
07:00 +20°C° 0 mm 0 mps 753 mmHg 81%
08:00 +22°C° 0 mm 0 mps 753 mmHg 77%
09:00 +23°C° 0 mm 0 mps 753 mmHg 74%
10:00 +26°C° 0 mm 1 mps 753 mmHg 70%
11:00 +27°C° 0 mm 1 mps 753 mmHg 66%
12:00 +27°C° 0 mm 1 mps 752 mmHg 62%
13:00 +28°C° 0 mm 1 mps 752 mmHg 60%
14:00 +28°C° 0 mm 1 mps 752 mmHg 58%
15:00 +29°C° 0 mm 1 mps 751 mmHg 56%
16:00 +28°C° 0 mm 1 mps 751 mmHg 59%
17:00 +28°C° 0 mm 1 mps 751 mmHg 62%
18:00 +26°C° 0 mm 0 mps 751 mmHg 65%
19:00 +25°C° 0 mm 0 mps 751 mmHg 69%
20:00 +23°C° 0 mm 0 mps 751 mmHg 73%
21:00 +21°C° 0 mm 0 mps 750 mmHg 77%
22:00 +22°C° 0 mm 1 mps 750 mmHg 78%
23:00 +22°C° 0 mm 1 mps 750 mmHg 80%
Show more